Location: Newark
(46.0333°N, 5.8167°E)
Time: 14:42:03
(UTC+00:00)

Envisat - Pass Details

Date: 27 September 2019
Orbit: 764 x 766 km, 98.1° (Epoch: 16 October)

Event Time Altitude Azimuth Distance (km) Brightness Sun altitude
Rises 18:22:53 0° 189° (S) 3,219 6.2 -10.8°
Reaches altitude 10° 18:25:21 10° 197° (SSW) 2,297 5.6 -11.2°
Maximum altitude 18:29:59 36° 264° (W) 1,208 4.7 -12.0°
Drops below altitude 10° 18:34:39 10° 330° (NNW) 2,312 6.1 -12.8°
Sets 18:37:10 0° 339° (NNW) 3,243 6.7 -13.2°
